• Currently

    Reported at Minneapolis, Minneapolis-St. Paul International Airport, MN
    4:10 AM CST TUE SEP 19 2017
  • 61°F16°C
  • Overcast
    Overcast
  • Feels Like:61°F16°CDew Point:57°F14°CHumidity:88% Winds:SE 8 mph 13 kph
    Pressure:29.91 in1013 hPaVisibility:10.00 miles16090.00 meters
Time Weather Temp Dew Point
Humidity Winds Visibility Pressure Precipitation
1 hr 24 hr
Saturday, September 9
23:53 23:53 Clear Clear 57°F14°C 46°F8°C 67% ESE 12 mphESE 19 kph 10.0 miles16.1 km 30.3 in1026 hPa 0.00 in0.00 mm --
22:53 22:53 Clear Clear 58°F14°C 46°F8°C 65% E 9 mphE 15 kph 10.0 miles16.1 km 30.27 in1025 hPa 0.00 in0.00 mm --
21:53 21:53 Clear Clear 59°F15°C 46°F8°C 62% E 12 mphE 19 kph 10.0 miles16.1 km 30.27 in1025 hPa 0.00 in0.00 mm --
20:53 20:53 Clear Clear 60°F16°C 45°F7°C 58% E 8 mphE 13 kph 10.0 miles16.1 km 30.27 in1025 hPa 0.00 in0.00 mm --
19:53 19:53 Clear Clear 63°F17°C 43°F6°C 48% E 10 mphE 17 kph 10.0 miles16.1 km 30.24 in1024 hPa 0.00 in0.00 mm --
18:53 18:53 Sunny Sunny 65°F18°C 42°F6°C 43% E 13 mphE 20 kph 10.0 miles16.1 km 30.24 in1024 hPa 0.00 in0.00 mm --
17:53 17:53 Sunny Sunny 67°F19°C 42°F6°C 41% E 13 mphE 20 kph 10.0 miles16.1 km 30.24 in1024 hPa 0.00 in0.00 mm --
16:53 16:53 Sunny Sunny 68°F20°C 43°F6°C 40% E 13 mphE 20 kph 10.0 miles16.1 km 30.24 in1024 hPa 0.00 in0.00 mm --
16:19 16:19 Sunny Sunny 68°F20°C 42°F6°C 39% E 14 mphE 22 kph 10.0 miles16.1 km 30.24 in1024 hPa 0.00 in0.00 mm --
15:53 15:53 Sunny Sunny 68°F20°C 43°F6°C 40% ESE 14 mphESE 22 kph 10.0 miles16.1 km 30.24 in1024 hPa 0.00 in0.00 mm --
14:53 14:53 Sunny Sunny 67°F19°C 43°F6°C 42% E 12 mphE 19 kph 10.0 miles16.1 km 30.24 in1024 hPa 0.00 in0.00 mm --
13:53 13:53 Sunny Sunny 66°F19°C 43°F6°C 43% E 15 mphE 24 kph 10.0 miles16.1 km 30.27 in1025 hPa 0.00 in0.00 mm --
12:53 12:53 Sunny Sunny 65°F18°C 45°F7°C 49% E 14 mphE 22 kph 10.0 miles16.1 km 30.27 in1025 hPa 0.00 in0.00 mm --
11:53 11:53 Sunny Sunny 62°F17°C 45°F7°C 54% E 14 mphE 22 kph 10.0 miles16.1 km 30.27 in1025 hPa 0.00 in0.00 mm --
10:53 10:53 Sunny Sunny 60°F16°C 45°F7°C 58% ENE 16 mphENE 26 kph 10.0 miles16.1 km 30.24 in1024 hPa 0.00 in0.00 mm --
09:53 09:53 Sunny Sunny 58°F14°C 47°F8°C 67% E 16 mphE 26 kph 10.0 miles16.1 km 30.24 in1024 hPa 0.00 in0.00 mm --
08:53 08:53 Sunny Sunny 55°F13°C 48°F9°C 77% E 16 mphE 26 kph 10.0 miles16.1 km 30.21 in1023 hPa 0.00 in0.00 mm --
07:53 07:53 Sunny Sunny 53°F12°C 49°F9°C 86% E 15 mphE 24 kph 10.0 miles16.1 km 30.18 in1022 hPa 0.00 in0.00 mm --
06:53 06:53 Mostly Sunny Mostly Sunny 52°F11°C 49°F9°C 89% ENE 13 mphENE 20 kph 10.0 miles16.1 km 30.18 in1022 hPa 0.00 in0.00 mm --
05:53 05:53 Mostly Clear Mostly Clear 53°F12°C 49°F9°C 86% ENE 9 mphENE 15 kph 10.0 miles16.1 km 30.15 in1021 hPa 0.00 in0.00 mm --
04:53 04:53 Mostly Clear Mostly Clear 54°F12°C 49°F9°C 83% ENE 12 mphENE 19 kph 10.0 miles16.1 km 30.12 in1020 hPa 0.00 in0.00 mm --
03:53 03:53 Mostly Clear Mostly Clear 55°F13°C 50°F10°C 83% E 12 mphE 19 kph 10.0 miles16.1 km 30.09 in1019 hPa 0.00 in0.00 mm --
02:53 02:53 Mostly Cloudy Mostly Cloudy 56°F13°C 50°F10°C 81% E 10 mphE 17 kph 10.0 miles16.1 km 30.09 in1019 hPa 0.00 in0.00 mm --
01:53 01:53 Mostly Cloudy Mostly Cloudy 57°F14°C 50°F10°C 78% E 10 mphE 17 kph 10.0 miles16.1 km 30.06 in1018 hPa 0.00 in0.00 mm --
00:53 00:53 Mostly Cloudy Mostly Cloudy 57°F14°C 52°F11°C 83% E 12 mphE 19 kph 10.0 miles16.1 km 30.03 in1017 hPa 0.00 in0.00 mm --